Weather in Rotenburg an der Wümme

Germany     53°06′44″N   9°24′40″E
temp.,
°C
wind,
m/s
gust,
m/s
humid.,
%
clouds,
%
prec.,
mm/h
press.,
hPa
HPBL,
m
19 january, tue
tue1901:00+2sw51294100 0.0 1015404
04:00+3sw51396100 0.0 1012596
07:00+4ssw71492100 1.6 1008670
10:00+4ssw81593100 4.8 1004742
13:00+5ssw71593100 7.1 1001693
16:00+7wsw51397100 3.1 999510
19:00+9wsw91787100 6.1 10001037
22:00+8wsw8178699 1.4 1001812
20 january, wed
wed2001:00+8sw91784100 1.5 1001954
04:00+6sw81683100 0.3 999801
07:00+6sw91780100 0.6 999703
10:00+7sw91881100 0.3 998846
13:00+8sw81677100 0.4 998925
16:00+8sw81684100 0.1 997885
19:00+7ssw61669100 0.2 997618
22:00+7s61676100 0.0 996761
21 january, thu
thu2101:00+7s6178193 0.0 994627
04:00+8s81876100 0.0 992960
07:00+8s9197396 0.0 9891060
10:00+9ssw10217791 0.3 9881452
13:00+7sw9156096 0.8 9911401
16:00+6ssw6136967 0.0 9901127
19:00+5ssw7157072 0.0 990833
22:00+5ssw71574100 0.0 988701
22 january, fri
fri2201:00+5s4987100 0.5 984552
04:00+7sw51587100 3.7 9811115
07:00+4wsw61388100 9.1 984946
10:00+4sw81479100 0.1 9881207
13:00+5sw9157487 0.2 9901513
16:00+5sw8157398 0.3 9921441
19:00+3sw7158096 0.4 9941052
22:00+2sw614830 0.0 996665
23 january, sat
sat2301:00+1sw511880 0.0 997342
04:00+1ssw499434 0.0 996259
07:00+1s389156 0.0 996288
10:00+2ssw51096100 2.3 995592
13:00+3ssw51097100 3.8 994583
16:00+2wsw5995100 0.5 993619
19:00+1wnw129698 0.5 99356
22:000ssw0095100 0.0 99222